UNQ275 LGTS-LHBP

Flight info

Callsign UNQ275
Flight time N/A
Altitude 38000
Route ODIKO UN128 RUGAS DCT SIN DCT RAXAD DCT VAGEN DCT PARAK DCT KEZAL
Aircraft A320/M-SDE3FGHIRWY/LB1

Departure

Time 2026-05-05 10:14
Airport Thessaloniki Macedonia International Airport (LGTS)

Arrival

Time N/A
Airport Budapest Liszt Ferenc International Airport (LHBP)
Time Latitude Longitude Altitude Speed Heading
2026-05-05 09:55 40.52460 22.97393 28 ft 0 kts 45°
2026-05-05 10:05 40.52460 22.97392 28 ft 1 kts 45°
2026-05-05 10:05 40.52443 22.97370 51 ft 4 kts 45°
2026-05-05 10:05 40.52424 22.97345 24 ft 4 kts 45°
2026-05-05 10:06 40.52405 22.97320 28 ft 4 kts 45°
2026-05-05 10:06 40.52394 22.97306 28 ft 1 kts 45°
2026-05-05 10:06 40.52392 22.97304 28 ft 0 kts 45°
2026-05-05 10:09 40.52393 22.97304 28 ft 0 kts 45°
2026-05-05 10:09 40.52399 22.97317 28 ft 3 kts 61°
2026-05-05 10:09 40.52398 22.97350 28 ft 5 kts 107°
2026-05-05 10:09 40.52374 22.97391 28 ft 7 kts 134°
2026-05-05 10:10 40.52334 22.97443 28 ft 9 kts 136°
2026-05-05 10:10 40.52288 22.97500 28 ft 10 kts 135°
2026-05-05 10:10 40.52235 22.97570 28 ft 12 kts 135°
2026-05-05 10:10 40.52164 22.97647 28 ft 14 kts 147°
2026-05-05 10:11 40.52082 22.97742 29 ft 17 kts 136°
2026-05-05 10:11 40.51999 22.97866 29 ft 19 kts 114°
2026-05-05 10:11 40.51965 22.98047 29 ft 22 kts 103°
2026-05-05 10:11 40.51930 22.98224 29 ft 3 kts 105°
2026-05-05 10:12 40.51922 22.98266 29 ft 6 kts 103°
2026-05-05 10:12 40.51911 22.98329 29 ft 8 kts 103°
2026-05-05 10:12 40.51896 22.98412 29 ft 11 kts 103°
2026-05-05 10:12 40.51878 22.98516 29 ft 13 kts 103°
2026-05-05 10:13 40.51853 22.98639 29 ft 12 kts 105°
2026-05-05 10:13 40.51794 22.98705 28 ft 13 kts 184°
2026-05-05 10:13 40.51707 22.98675 29 ft 11 kts 213°
2026-05-05 10:13 40.51697 22.98563 28 ft 15 kts 281°
2026-05-05 10:14 40.51748 22.98288 29 ft 62 kts 283°
2026-05-05 10:14 40.51905 22.97460 28 ft 122 kts 283°
2026-05-05 10:14 40.52135 22.96192 88 ft 160 kts 283°
2026-05-05 10:14 40.52407 22.94791 723 ft 156 kts 286°
2026-05-05 10:15 40.52716 22.93421 1369 ft 156 kts 288°
2026-05-05 10:15 40.53028 22.92059 2015 ft 154 kts 289°
2026-05-05 10:15 40.53347 22.90691 2382 ft 169 kts 288°
2026-05-05 10:15 40.53695 22.89114 2680 ft 190 kts 288°
2026-05-05 10:16 40.54084 22.87360 2989 ft 212 kts 288°
2026-05-05 10:16 40.54521 22.85391 3402 ft 236 kts 288°
2026-05-05 10:16 40.54985 22.83216 3929 ft 255 kts 287°
2026-05-05 10:16 40.55498 22.80948 4775 ft 262 kts 294°
2026-05-05 10:17 40.56585 22.79043 5615 ft 265 kts 323°
2026-05-05 10:17 40.58257 22.78028 6484 ft 269 kts 349°
2026-05-05 10:17 40.60126 22.78043 7305 ft 273 kts 13°
2026-05-05 10:17 40.61954 22.78762 8221 ft 274 kts 18°
2026-05-05 10:18 40.63775 22.79532 9116 ft 276 kts 19°
2026-05-05 10:18 40.65614 22.80318 10008 ft 279 kts 19°
2026-05-05 10:18 40.67503 22.81129 10485 ft 296 kts 19°
2026-05-05 10:18 40.69543 22.82003 10699 ft 319 kts 19°
2026-05-05 10:19 40.71705 22.82928 11141 ft 332 kts 19°
2026-05-05 10:19 40.73916 22.83866 11835 ft 336 kts 18°
2026-05-05 10:19 40.76150 22.84806 12562 ft 339 kts 18°
2026-05-05 10:19 40.78406 22.85753 13317 ft 341 kts 18°
2026-05-05 10:20 40.79141 22.86062 13565 ft 342 kts 18°